1-Wire/iButton Part Number: DS1922L
1-Wire/iButton Registration Number: 600000000C8C6841
Mission in Progress?  true
SUTA Mission?  false
Waiting for Temperature Alarm?  false
Sample Rate:  Every 180 second(s)
Mission Start Time:  Wed Nov 22 15:13:01 CET 2017
Mission Sample Count:  4096
Roll Over Enabled?  false(no rollover occurred)
First Sample Timestamp:  Wed Nov 22 15:13:01 CET 2017
Total Mission Samples:  4096
Total Device Samples:  27939
Temperature Logging:  0.0625 C
Temperature High Alarm:  disabled
Temperature Low Alarm:  disabled
Data Logging:  disabled
Data High Alarm:  disabled
Data Low Alarm:  disabled

Date/Time,Unit,Value
22/11/17 15:13:01,C,30.316
22/11/17 15:16:01,C,28.692
22/11/17 15:19:01,C,24.193
22/11/17 15:22:01,C,22.505
22/11/17 15:25:01,C,22.13
22/11/17 15:28:01,C,22.005
22/11/17 15:31:01,C,21.943
22/11/17 15:34:01,C,22.005
22/11/17 15:37:01,C,21.567
22/11/17 15:40:01,C,21.567
22/11/17 15:43:01,C,21.63
22/11/17 15:46:01,C,21.692
22/11/17 15:49:01,C,21.817
22/11/17 15:52:01,C,21.505
22/11/17 15:55:01,C,21.505
22/11/17 15:58:01,C,21.63
22/11/17 16:01:01,C,21.692
22/11/17 16:04:01,C,21.817
22/11/17 16:07:01,C,21.505
22/11/17 16:10:01,C,21.567
22/11/17 16:13:01,C,21.63
22/11/17 16:16:01,C,21.755
22/11/17 16:19:01,C,21.755
22/11/17 16:22:01,C,21.505
22/11/17 16:25:01,C,21.567
22/11/17 16:28:01,C,21.692
22/11/17 16:31:01,C,21.817
22/11/17 16:34:01,C,21.88
22/11/17 16:37:01,C,21.567
22/11/17 16:40:01,C,21.63
22/11/17 16:43:01,C,21.692
22/11/17 16:46:01,C,21.817
22/11/17 16:49:01,C,21.817
22/11/17 16:52:01,C,21.505
22/11/17 16:55:01,C,21.567
22/11/17 16:58:01,C,21.692
22/11/17 17:01:01,C,21.755
22/11/17 17:04:01,C,21.88
22/11/17 17:07:01,C,21.755
22/11/17 17:10:01,C,21.567
22/11/17 17:13:01,C,21.63
22/11/17 17:16:01,C,21.692
22/11/17 17:19:01,C,21.817
22/11/17 17:22:01,C,21.943
22/11/17 17:25:01,C,21.88
22/11/17 17:28:01,C,21.567
22/11/17 17:31:01,C,21.63
22/11/17 17:34:01,C,21.692
22/11/17 17:37:01,C,21.755
22/11/17 17:40:01,C,21.817
22/11/17 17:43:01,C,21.943
22/11/17 17:46:01,C,21.88
22/11/17 17:49:01,C,21.505
22/11/17 17:52:01,C,21.567
22/11/17 17:55:01,C,21.63
22/11/17 17:58:01,C,21.692
22/11/17 18:01:01,C,21.817
22/11/17 18:04:01,C,21.88
22/11/17 18:07:01,C,21.943
22/11/17 18:10:01,C,21.442
22/11/17 18:13:01,C,21.505
22/11/17 18:16:01,C,21.567
22/11/17 18:19:01,C,21.63
22/11/17 18:22:01,C,21.692
22/11/17 18:25:01,C,21.755
22/11/17 18:28:01,C,21.88
22/11/17 18:31:01,C,21.88
22/11/17 18:34:01,C,21.442
22/11/17 18:37:01,C,21.442
22/11/17 18:40:01,C,21.505
22/11/17 18:43:01,C,21.567
22/11/17 18:46:01,C,21.63
22/11/17 18:49:01,C,21.755
22/11/17 18:52:01,C,21.817
22/11/17 18:55:01,C,21.943
22/11/17 18:58:01,C,21.38
22/11/17 19:01:01,C,21.442
22/11/17 19:04:01,C,21.505
22/11/17 19:07:01,C,21.567
22/11/17 19:10:01,C,21.63
22/11/17 19:13:01,C,21.692
22/11/17 19:16:01,C,21.755
22/11/17 19:19:01,C,21.88
22/11/17 19:22:01,C,21.567
22/11/17 19:25:01,C,21.38
22/11/17 19:28:01,C,21.442
22/11/17 19:31:01,C,21.505
22/11/17 19:34:01,C,21.567
22/11/17 19:37:01,C,21.63
22/11/17 19:40:01,C,21.692
22/11/17 19:43:01,C,21.817
22/11/17 19:46:01,C,21.88
22/11/17 19:49:01,C,21.442
22/11/17 19:52:01,C,21.38
22/11/17 19:55:01,C,21.442
22/11/17 19:58:01,C,21.505
22/11/17 20:01:01,C,21.567
22/11/17 20:04:01,C,21.63
22/11/17 20:07:01,C,21.692
22/11/17 20:10:01,C,21.817
22/11/17 20:13:01,C,21.88
22/11/17 20:16:01,C,21.38
22/11/17 20:19:01,C,21.317
22/11/17 20:22:01,C,21.38
22/11/17 20:25:01,C,21.442
22/11/17 20:28:01,C,21.505
22/11/17 20:31:01,C,21.567
22/11/17 20:34:01,C,21.692
22/11/17 20:37:01,C,21.755
22/11/17 20:40:01,C,21.817
22/11/17 20:43:01,C,21.755
22/11/17 20:46:01,C,21.755
22/11/17 20:49:01,C,21.755
22/11/17 20:52:01,C,21.755
22/11/17 20:55:01,C,21.817
22/11/17 20:58:01,C,21.88
22/11/17 21:01:01,C,21.943
22/11/17 21:04:01,C,21.63
22/11/17 21:07:01,C,21.38
22/11/17 21:10:01,C,21.38
22/11/17 21:13:01,C,21.442
22/11/17 21:16:01,C,21.505
22/11/17 21:19:01,C,21.63
22/11/17 21:22:01,C,21.692
22/11/17 21:25:01,C,21.755
22/11/17 21:28:01,C,21.88
22/11/17 21:31:01,C,21.567
22/11/17 21:34:01,C,21.317
22/11/17 21:37:01,C,21.38
22/11/17 21:40:01,C,21.442
22/11/17 21:43:01,C,21.505
22/11/17 21:46:01,C,21.567
22/11/17 21:49:01,C,21.63
22/11/17 21:52:01,C,21.755
22/11/17 21:55:01,C,21.817
22/11/17 21:58:01,C,21.63
22/11/17 22:01:01,C,21.317
22/11/17 22:04:01,C,21.317
22/11/17 22:07:01,C,21.38
22/11/17 22:10:01,C,21.442
22/11/17 22:13:01,C,21.505
22/11/17 22:16:01,C,21.63
22/11/17 22:19:01,C,21.692
22/11/17 22:22:01,C,21.755
22/11/17 22:25:01,C,21.817
22/11/17 22:28:01,C,21.38
22/11/17 22:31:01,C,21.317
22/11/17 22:34:01,C,21.317
22/11/17 22:37:01,C,21.38
22/11/17 22:40:01,C,21.442
22/11/17 22:43:01,C,21.505
22/11/17 22:46:01,C,21.63
22/11/17 22:49:01,C,21.692
22/11/17 22:52:01,C,21.755
22/11/17 22:55:01,C,21.817
22/11/17 22:58:01,C,21.442
22/11/17 23:01:01,C,21.317
22/11/17 23:04:01,C,21.317
22/11/17 23:07:01,C,21.38
22/11/17 23:10:01,C,21.442
22/11/17 23:13:01,C,21.505
22/11/17 23:16:01,C,21.567
22/11/17 23:19:01,C,21.63
22/11/17 23:22:01,C,21.692
22/11/17 23:25:01,C,21.817
22/11/17 23:28:01,C,21.817
22/11/17 23:31:01,C,21.255
22/11/17 23:34:01,C,21.255
22/11/17 23:37:01,C,21.317
22/11/17 23:40:01,C,21.38
22/11/17 23:43:01,C,21.442
22/11/17 23:46:01,C,21.505
22/11/17 23:49:01,C,21.567
22/11/17 23:52:01,C,21.692
22/11/17 23:55:01,C,21.755
22/11/17 23:58:01,C,21.817
23/11/17 00:01:01,C,21.817
23/11/17 00:04:01,C,21.255
23/11/17 00:07:01,C,21.255
23/11/17 00:10:01,C,21.255
23/11/17 00:13:01,C,21.317
23/11/17 00:16:01,C,21.38
23/11/17 00:19:01,C,21.442
23/11/17 00:22:01,C,21.505
23/11/17 00:25:01,C,21.63
23/11/17 00:28:01,C,21.692
23/11/17 00:31:01,C,21.755
23/11/17 00:34:01,C,21.755
23/11/17 00:37:01,C,21.817
23/11/17 00:40:01,C,21.63
23/11/17 00:43:01,C,21.255
23/11/17 00:46:01,C,21.255
23/11/17 00:49:01,C,21.317
23/11/17 00:52:01,C,21.317
23/11/17 00:55:01,C,21.38
23/11/17 00:58:01,C,21.442
23/11/17 01:01:01,C,21.505
23/11/17 01:04:01,C,21.567
23/11/17 01:07:01,C,21.63
23/11/17 01:10:01,C,21.692
23/11/17 01:13:01,C,21.755
23/11/17 01:16:01,C,21.755
23/11/17 01:19:01,C,21.817
23/11/17 01:22:01,C,21.88
23/11/17 01:25:01,C,21.755
23/11/17 01:28:01,C,21.192
23/11/17 01:31:01,C,21.192
23/11/17 01:34:01,C,21.255
23/11/17 01:37:01,C,21.255
23/11/17 01:40:01,C,21.317
23/11/17 01:43:01,C,21.38
23/11/17 01:46:01,C,21.442
23/11/17 01:49:01,C,21.505
23/11/17 01:52:01,C,21.567
23/11/17 01:55:01,C,21.63
23/11/17 01:58:01,C,21.692
23/11/17 02:01:01,C,21.755
23/11/17 02:04:01,C,21.755
23/11/17 02:07:01,C,21.817
23/11/17 02:10:01,C,21.817
23/11/17 02:13:01,C,21.192
23/11/17 02:16:01,C,21.192
23/11/17 02:19:01,C,21.192
23/11/17 02:22:01,C,21.255
23/11/17 02:25:01,C,21.317
23/11/17 02:28:01,C,21.38
23/11/17 02:31:01,C,21.442
23/11/17 02:34:01,C,21.505
23/11/17 02:37:01,C,21.567
23/11/17 02:40:01,C,21.63
23/11/17 02:43:01,C,21.692
23/11/17 02:46:01,C,21.755
23/11/17 02:49:01,C,21.817
23/11/17 02:52:01,C,21.505
23/11/17 02:55:01,C,21.192
23/11/17 02:58:01,C,21.192
23/11/17 03:01:01,C,21.255
23/11/17 03:04:01,C,21.317
23/11/17 03:07:01,C,21.38
23/11/17 03:10:01,C,21.442
23/11/17 03:13:01,C,21.505
23/11/17 03:16:01,C,21.567
23/11/17 03:19:01,C,21.63
23/11/17 03:22:01,C,21.692
23/11/17 03:25:01,C,21.755
23/11/17 03:28:01,C,21.817
23/11/17 03:31:01,C,21.442
23/11/17 03:34:01,C,21.255
23/11/17 03:37:01,C,21.255
23/11/17 03:40:01,C,21.255
23/11/17 03:43:01,C,21.317
23/11/17 03:46:01,C,21.38
23/11/17 03:49:01,C,21.442
23/11/17 03:52:01,C,21.505
23/11/17 03:55:01,C,21.567
23/11/17 03:58:01,C,21.692
23/11/17 04:01:01,C,21.692
23/11/17 04:04:01,C,21.755
23/11/17 04:07:01,C,21.817
23/11/17 04:10:01,C,21.255
23/11/17 04:13:01,C,21.255
23/11/17 04:16:01,C,21.255
23/11/17 04:19:01,C,21.317
23/11/17 04:22:01,C,21.317
23/11/17 04:25:01,C,21.38
23/11/17 04:28:01,C,21.505
23/11/17 04:31:01,C,21.567
23/11/17 04:34:01,C,21.63
23/11/17 04:37:01,C,21.692
23/11/17 04:40:01,C,21.755
23/11/17 04:43:01,C,21.817
23/11/17 04:46:01,C,21.505
23/11/17 04:49:01,C,21.255
23/11/17 04:52:01,C,21.255
23/11/17 04:55:01,C,21.255
23/11/17 04:58:01,C,21.317
23/11/17 05:01:01,C,21.38
23/11/17 05:04:01,C,21.442
23/11/17 05:07:01,C,21.505
23/11/17 05:10:01,C,21.567
23/11/17 05:13:01,C,21.63
23/11/17 05:16:01,C,21.692
23/11/17 05:19:01,C,21.755
23/11/17 05:22:01,C,21.817
23/11/17 05:25:01,C,21.692
23/11/17 05:28:01,C,21.255
23/11/17 05:31:01,C,21.192
23/11/17 05:34:01,C,21.255
23/11/17 05:37:01,C,21.255
23/11/17 05:40:01,C,21.317
23/11/17 05:43:01,C,21.38
23/11/17 05:46:01,C,21.442
23/11/17 05:49:01,C,21.505
23/11/17 05:52:01,C,21.567
23/11/17 05:55:01,C,21.63
23/11/17 05:58:01,C,21.692
23/11/17 06:01:01,C,21.755
23/11/17 06:04:01,C,21.755
23/11/17 06:07:01,C,21.817
23/11/17 06:10:01,C,21.817
23/11/17 06:13:01,C,21.567
23/11/17 06:16:01,C,21.192
23/11/17 06:19:01,C,21.192
23/11/17 06:22:01,C,21.255
23/11/17 06:25:01,C,21.317
23/11/17 06:28:01,C,21.317
23/11/17 06:31:01,C,21.38
23/11/17 06:34:01,C,21.505
23/11/17 06:37:01,C,21.567
23/11/17 06:40:01,C,21.63
23/11/17 06:43:01,C,21.63
23/11/17 06:46:01,C,21.692
23/11/17 06:49:01,C,21.755
23/11/17 06:52:01,C,21.755
23/11/17 06:55:01,C,21.817
23/11/17 06:58:01,C,21.817
23/11/17 07:01:01,C,21.88
23/11/17 07:04:01,C,21.88
23/11/17 07:07:01,C,21.38
23/11/17 07:10:01,C,21.192
23/11/17 07:13:01,C,21.192
23/11/17 07:16:01,C,21.192
23/11/17 07:19:01,C,21.255
23/11/17 07:22:01,C,21.317
23/11/17 07:25:01,C,21.38
23/11/17 07:28:01,C,21.442
23/11/17 07:31:01,C,21.505
23/11/17 07:34:01,C,21.567
23/11/17 07:37:01,C,21.567
23/11/17 07:40:01,C,21.63
23/11/17 07:43:01,C,21.692
23/11/17 07:46:01,C,21.692
23/11/17 07:49:01,C,21.755
23/11/17 07:52:01,C,21.755
23/11/17 07:55:01,C,21.817
23/11/17 07:58:01,C,21.817
23/11/17 08:01:01,C,21.817
23/11/17 08:04:01,C,21.505
23/11/17 08:07:01,C,21.192
23/11/17 08:10:01,C,21.192
23/11/17 08:13:01,C,21.192
23/11/17 08:16:01,C,21.255
23/11/17 08:19:01,C,21.317
23/11/17 08:22:01,C,21.38
23/11/17 08:25:01,C,21.442
23/11/17 08:28:01,C,21.505
23/11/17 08:31:01,C,21.567
23/11/17 08:34:01,C,21.63
23/11/17 08:37:01,C,21.692
23/11/17 08:40:01,C,21.692
23/11/17 08:43:01,C,21.755
23/11/17 08:46:01,C,21.817
23/11/17 08:49:01,C,21.817
23/11/17 08:52:01,C,21.192
23/11/17 08:55:01,C,21.192
23/11/17 08:58:01,C,21.192
23/11/17 09:01:01,C,21.255
23/11/17 09:04:01,C,21.255
23/11/17 09:07:01,C,21.38
23/11/17 09:10:01,C,21.442
23/11/17 09:13:01,C,21.505
23/11/17 09:16:01,C,21.567
23/11/17 09:19:01,C,21.63
23/11/17 09:22:01,C,21.692
23/11/17 09:25:01,C,21.755
23/11/17 09:28:01,C,21.755
23/11/17 09:31:01,C,21.442
23/11/17 09:34:01,C,21.192
23/11/17 09:37:01,C,21.192
23/11/17 09:40:01,C,21.255
23/11/17 09:43:01,C,21.317
23/11/17 09:46:01,C,21.38
23/11/17 09:49:01,C,21.38
23/11/17 09:52:01,C,21.505
23/11/17 09:55:01,C,21.567
23/11/17 09:58:01,C,21.63
23/11/17 10:01:01,C,21.692
23/11/17 10:04:01,C,21.755
23/11/17 10:07:01,C,21.505
23/11/17 10:10:01,C,21.255
23/11/17 10:13:01,C,21.255
23/11/17 10:16:01,C,21.255
23/11/17 10:19:01,C,21.317
23/11/17 10:22:01,C,21.38
23/11/17 10:25:01,C,21.505
23/11/17 10:28:01,C,21.567
23/11/17 10:31:01,C,21.63
23/11/17 10:34:01,C,21.692
23/11/17 10:37:01,C,21.692
23/11/17 10:40:01,C,21.255
23/11/17 10:43:01,C,21.255
23/11/17 10:46:01,C,21.317
23/11/17 10:49:01,C,21.38
23/11/17 10:52:01,C,21.442
23/11/17 10:55:01,C,21.505
23/11/17 10:58:01,C,21.567
23/11/17 11:01:01,C,21.692
23/11/17 11:04:01,C,21.755
23/11/17 11:07:01,C,21.255
23/11/17 11:10:01,C,21.255
23/11/17 11:13:01,C,21.317
23/11/17 11:16:01,C,21.38
23/11/17 11:19:01,C,21.442
23/11/17 11:22:01,C,21.505
23/11/17 11:25:01,C,21.567
23/11/17 11:28:01,C,21.692
23/11/17 11:31:01,C,21.755
23/11/17 11:34:01,C,21.567
23/11/17 11:37:01,C,21.317
23/11/17 11:40:01,C,21.317
23/11/17 11:43:01,C,21.38
23/11/17 11:46:01,C,21.442
23/11/17 11:49:01,C,21.567
23/11/17 11:52:01,C,21.63
23/11/17 11:55:01,C,21.692
23/11/17 11:58:01,C,21.817
23/11/17 12:01:01,C,21.505
23/11/17 12:04:01,C,21.38
23/11/17 12:07:01,C,21.442
23/11/17 12:10:01,C,21.505
23/11/17 12:13:01,C,21.567
23/11/17 12:16:01,C,21.63
23/11/17 12:19:01,C,21.755
23/11/17 12:22:01,C,21.817
23/11/17 12:25:01,C,21.567
23/11/17 12:28:01,C,21.442
23/11/17 12:31:01,C,21.505
23/11/17 12:34:01,C,21.567
23/11/17 12:37:01,C,21.63
23/11/17 12:40:01,C,21.755
23/11/17 12:43:01,C,21.817
23/11/17 12:46:01,C,21.755
23/11/17 12:49:01,C,21.442
23/11/17 12:52:01,C,21.505
23/11/17 12:55:01,C,21.63
23/11/17 12:58:01,C,21.692
23/11/17 13:01:01,C,21.755
23/11/17 13:04:01,C,21.88
23/11/17 13:07:01,C,21.755
23/11/17 13:10:01,C,21.567
23/11/17 13:13:01,C,21.63
23/11/17 13:16:01,C,21.692
23/11/17 13:19:01,C,21.817
23/11/17 13:22:01,C,21.943
23/11/17 13:25:01,C,21.63
23/11/17 13:28:01,C,21.63
23/11/17 13:31:01,C,21.692
23/11/17 13:34:01,C,21.755
23/11/17 13:37:01,C,21.88
23/11/17 13:40:01,C,21.943
23/11/17 13:43:01,C,21.567
23/11/17 13:46:01,C,21.63
23/11/17 13:49:01,C,21.692
23/11/17 13:52:01,C,21.755
23/11/17 13:55:01,C,21.88
23/11/17 13:58:01,C,21.943
23/11/17 14:01:01,C,21.817
23/11/17 14:04:01,C,21.567
23/11/17 14:07:01,C,21.63
23/11/17 14:10:01,C,21.755
23/11/17 14:13:01,C,21.817
23/11/17 14:16:01,C,21.943
23/11/17 14:19:01,C,21.943
23/11/17 14:22:01,C,21.567
23/11/17 14:25:01,C,21.63
23/11/17 14:28:01,C,21.692
23/11/17 14:31:01,C,21.817
23/11/17 14:34:01,C,21.88
23/11/17 14:37:01,C,22.005
23/11/17 14:40:01,C,21.692
23/11/17 14:43:01,C,21.63
23/11/17 14:46:01,C,21.692
23/11/17 14:49:01,C,21.755
23/11/17 14:52:01,C,21.817
23/11/17 14:55:01,C,21.943
23/11/17 14:58:01,C,22.005
23/11/17 15:01:01,C,21.567
23/11/17 15:04:01,C,21.63
23/11/17 15:07:01,C,21.692
23/11/17 15:10:01,C,21.817
23/11/17 15:13:01,C,21.88
23/11/17 15:16:01,C,22.005
23/11/17 15:19:01,C,21.692
23/11/17 15:22:01,C,21.63
23/11/17 15:25:01,C,21.692
23/11/17 15:28:01,C,21.817
23/11/17 15:31:01,C,21.88
23/11/17 15:34:01,C,22.005
23/11/17 15:37:01,C,22.005
23/11/17 15:40:01,C,21.692
23/11/17 15:43:01,C,21.63
23/11/17 15:46:01,C,21.692
23/11/17 15:49:01,C,21.755
23/11/17 15:52:01,C,21.817
23/11/17 15:55:01,C,21.943
23/11/17 15:58:01,C,21.817
23/11/17 16:01:01,C,21.567
23/11/17 16:04:01,C,21.63
23/11/17 16:07:01,C,21.692
23/11/17 16:10:01,C,21.755
23/11/17 16:13:01,C,21.88
23/11/17 16:16:01,C,21.943
23/11/17 16:19:01,C,21.63
23/11/17 16:22:01,C,21.567
23/11/17 16:25:01,C,21.63
23/11/17 16:28:01,C,21.692
23/11/17 16:31:01,C,21.755
23/11/17 16:34:01,C,21.88
23/11/17 16:37:01,C,21.943
23/11/17 16:40:01,C,22.005
23/11/17 16:43:01,C,21.567
23/11/17 16:46:01,C,21.442
23/11/17 16:49:01,C,21.505
23/11/17 16:52:01,C,21.63
23/11/17 16:55:01,C,21.692
23/11/17 16:58:01,C,21.755
23/11/17 17:01:01,C,21.88
23/11/17 17:04:01,C,21.692
23/11/17 17:07:01,C,21.442
23/11/17 17:10:01,C,21.505
23/11/17 17:13:01,C,21.567
23/11/17 17:16:01,C,21.692
23/11/17 17:19:01,C,21.755
23/11/17 17:22:01,C,21.817
23/11/17 17:25:01,C,21.88
23/11/17 17:28:01,C,21.442
23/11/17 17:31:01,C,21.442
23/11/17 17:34:01,C,21.505
23/11/17 17:37:01,C,21.567
23/11/17 17:40:01,C,21.63
23/11/17 17:43:01,C,21.755
23/11/17 17:46:01,C,21.817
23/11/17 17:49:01,C,21.817
23/11/17 17:52:01,C,21.38
23/11/17 17:55:01,C,21.442
23/11/17 17:58:01,C,21.442
23/11/17 18:01:01,C,21.567
23/11/17 18:04:01,C,21.63
23/11/17 18:07:01,C,21.692
23/11/17 18:10:01,C,21.755
23/11/17 18:13:01,C,21.88
23/11/17 18:16:01,C,21.442
23/11/17 18:19:01,C,21.38
23/11/17 18:22:01,C,21.442
23/11/17 18:25:01,C,21.505
23/11/17 18:28:01,C,21.567
23/11/17 18:31:01,C,21.63
23/11/17 18:34:01,C,21.692
23/11/17 18:37:01,C,21.755
23/11/17 18:40:01,C,21.88
23/11/17 18:43:01,C,21.38
23/11/17 18:46:01,C,21.38
23/11/17 18:49:01,C,21.38
23/11/17 18:52:01,C,21.442
23/11/17 18:55:01,C,21.505
23/11/17 18:58:01,C,21.63
23/11/17 19:01:01,C,21.692
23/11/17 19:04:01,C,21.755
23/11/17 19:07:01,C,21.817
23/11/17 19:10:01,C,21.38
23/11/17 19:13:01,C,21.317
23/11/17 19:16:01,C,21.38
23/11/17 19:19:01,C,21.442
23/11/17 19:22:01,C,21.505
23/11/17 19:25:01,C,21.567
23/11/17 19:28:01,C,21.692
23/11/17 19:31:01,C,21.755
23/11/17 19:34:01,C,21.692
23/11/17 19:37:01,C,21.317
23/11/17 19:40:01,C,21.317
23/11/17 19:43:01,C,21.38
23/11/17 19:46:01,C,21.442
23/11/17 19:49:01,C,21.567
23/11/17 19:52:01,C,21.63
23/11/17 19:55:01,C,21.692
23/11/17 19:58:01,C,21.817
23/11/17 20:01:01,C,21.38
23/11/17 20:04:01,C,21.317
23/11/17 20:07:01,C,21.317
23/11/17 20:10:01,C,21.38
23/11/17 20:13:01,C,21.442
23/11/17 20:16:01,C,21.567
23/11/17 20:19:01,C,21.63
23/11/17 20:22:01,C,21.692
23/11/17 20:25:01,C,21.817
23/11/17 20:28:01,C,21.442
23/11/17 20:31:01,C,21.317
23/11/17 20:34:01,C,21.317
23/11/17 20:37:01,C,21.38
23/11/17 20:40:01,C,21.442
23/11/17 20:43:01,C,21.567
23/11/17 20:46:01,C,21.63
23/11/17 20:49:01,C,21.692
23/11/17 20:52:01,C,21.755
23/11/17 20:55:01,C,21.442
23/11/17 20:58:01,C,21.255
23/11/17 21:01:01,C,21.317
23/11/17 21:04:01,C,21.38
23/11/17 21:07:01,C,21.442
23/11/17 21:10:01,C,21.505
23/11/17 21:13:01,C,21.567
23/11/17 21:16:01,C,21.692
23/11/17 21:19:01,C,21.755
23/11/17 21:22:01,C,21.817
23/11/17 21:25:01,C,21.255
23/11/17 21:28:01,C,21.317
23/11/17 21:31:01,C,21.317
23/11/17 21:34:01,C,21.38
23/11/17 21:37:01,C,21.442
23/11/17 21:40:01,C,21.505
23/11/17 21:43:01,C,21.567
23/11/17 21:46:01,C,21.63
23/11/17 21:49:01,C,21.692
23/11/17 21:52:01,C,21.755
23/11/17 21:55:01,C,21.817
23/11/17 21:58:01,C,21.38
23/11/17 22:01:01,C,21.317
23/11/17 22:04:01,C,21.317
23/11/17 22:07:01,C,21.38
23/11/17 22:10:01,C,21.442
23/11/17 22:13:01,C,21.442
23/11/17 22:16:01,C,21.505
23/11/17 22:19:01,C,21.63
23/11/17 22:22:01,C,21.692
23/11/17 22:25:01,C,21.755
23/11/17 22:28:01,C,21.817
23/11/17 22:31:01,C,21.442
23/11/17 22:34:01,C,21.255
23/11/17 22:37:01,C,21.255
23/11/17 22:40:01,C,21.317
23/11/17 22:43:01,C,21.38
23/11/17 22:46:01,C,21.442
23/11/17 22:49:01,C,21.505
23/11/17 22:52:01,C,21.567
23/11/17 22:55:01,C,21.63
23/11/17 22:58:01,C,21.692
23/11/17 23:01:01,C,21.755
23/11/17 23:04:01,C,21.505
23/11/17 23:07:01,C,21.255
23/11/17 23:10:01,C,21.255
23/11/17 23:13:01,C,21.317
23/11/17 23:16:01,C,21.317
23/11/17 23:19:01,C,21.38
23/11/17 23:22:01,C,21.442
23/11/17 23:25:01,C,21.505
23/11/17 23:28:01,C,21.63
23/11/17 23:31:01,C,21.692
23/11/17 23:34:01,C,21.755
23/11/17 23:37:01,C,21.817
23/11/17 23:40:01,C,21.255
23/11/17 23:43:01,C,21.255
23/11/17 23:46:01,C,21.255
23/11/17 23:49:01,C,21.317
23/11/17 23:52:01,C,21.38
23/11/17 23:55:01,C,21.442
23/11/17 23:58:01,C,21.505
24/11/17 00:01:01,C,21.567
24/11/17 00:04:01,C,21.63
24/11/17 00:07:01,C,21.692
24/11/17 00:10:01,C,21.755
24/11/17 00:13:01,C,21.692
24/11/17 00:16:01,C,21.255
24/11/17 00:19:01,C,21.255
24/11/17 00:22:01,C,21.255
24/11/17 00:25:01,C,21.317
24/11/17 00:28:01,C,21.38
24/11/17 00:31:01,C,21.442
24/11/17 00:34:01,C,21.505
24/11/17 00:37:01,C,21.567
24/11/17 00:40:01,C,21.63
24/11/17 00:43:01,C,21.692
24/11/17 00:46:01,C,21.755
24/11/17 00:49:01,C,21.755
24/11/17 00:52:01,C,21.817
24/11/17 00:55:01,C,21.38
24/11/17 00:58:01,C,21.255
24/11/17 01:01:01,C,21.255
24/11/17 01:04:01,C,21.255
24/11/17 01:07:01,C,21.317
24/11/17 01:10:01,C,21.38
24/11/17 01:13:01,C,21.442
24/11/17 01:16:01,C,21.505
24/11/17 01:19:01,C,21.567
24/11/17 01:22:01,C,21.63
24/11/17 01:25:01,C,21.63
24/11/17 01:28:01,C,21.692
24/11/17 01:31:01,C,21.755
24/11/17 01:34:01,C,21.755
24/11/17 01:37:01,C,21.817
24/11/17 01:40:01,C,21.442
24/11/17 01:43:01,C,21.255
24/11/17 01:46:01,C,21.192
24/11/17 01:49:01,C,21.255
24/11/17 01:52:01,C,21.317
24/11/17 01:55:01,C,21.317
24/11/17 01:58:01,C,21.38
24/11/17 02:01:01,C,21.442
24/11/17 02:04:01,C,21.505
24/11/17 02:07:01,C,21.567
24/11/17 02:10:01,C,21.63
24/11/17 02:13:01,C,21.692
24/11/17 02:16:01,C,21.692
24/11/17 02:19:01,C,21.755
24/11/17 02:22:01,C,21.755
24/11/17 02:25:01,C,21.817
24/11/17 02:28:01,C,21.817
24/11/17 02:31:01,C,21.317
24/11/17 02:34:01,C,21.192
24/11/17 02:37:01,C,21.192
24/11/17 02:40:01,C,21.255
24/11/17 02:43:01,C,21.255
24/11/17 02:46:01,C,21.317
24/11/17 02:49:01,C,21.38
24/11/17 02:52:01,C,21.442
24/11/17 02:55:01,C,21.505
24/11/17 02:58:01,C,21.567
24/11/17 03:01:01,C,21.567
24/11/17 03:04:01,C,21.63
24/11/17 03:07:01,C,21.692
24/11/17 03:10:01,C,21.692
24/11/17 03:13:01,C,21.755
24/11/17 03:16:01,C,21.755
24/11/17 03:19:01,C,21.755
24/11/17 03:22:01,C,21.817
24/11/17 03:25:01,C,21.505
24/11/17 03:28:01,C,21.192
24/11/17 03:31:01,C,21.192
24/11/17 03:34:01,C,21.192
24/11/17 03:37:01,C,21.255
24/11/17 03:40:01,C,21.317
24/11/17 03:43:01,C,21.317
24/11/17 03:46:01,C,21.38
24/11/17 03:49:01,C,21.442
24/11/17 03:52:01,C,21.505
24/11/17 03:55:01,C,21.567
24/11/17 03:58:01,C,21.567
24/11/17 04:01:01,C,21.63
24/11/17 04:04:01,C,21.63
24/11/17 04:07:01,C,21.692
24/11/17 04:10:01,C,21.692
24/11/17 04:13:01,C,21.692
24/11/17 04:16:01,C,21.755
24/11/17 04:19:01,C,21.755
24/11/17 04:22:01,C,21.755
24/11/17 04:25:01,C,21.755
24/11/17 04:28:01,C,21.567
24/11/17 04:31:01,C,21.192
24/11/17 04:34:01,C,21.192
24/11/17 04:37:01,C,21.192
24/11/17 04:40:01,C,21.192
24/11/17 04:43:01,C,21.255
24/11/17 04:46:01,C,21.317
24/11/17 04:49:01,C,21.38
24/11/17 04:52:01,C,21.442
24/11/17 04:55:01,C,21.505
24/11/17 04:58:01,C,21.505
24/11/17 05:01:01,C,21.567
24/11/17 05:04:01,C,21.567
24/11/17 05:07:01,C,21.63
24/11/17 05:10:01,C,21.63
24/11/17 05:13:01,C,21.692
24/11/17 05:16:01,C,21.692
24/11/17 05:19:01,C,21.692
24/11/17 05:22:01,C,21.755
24/11/17 05:25:01,C,21.755
24/11/17 05:28:01,C,21.755
24/11/17 05:31:01,C,21.505
24/11/17 05:34:01,C,21.13
24/11/17 05:37:01,C,21.13
24/11/17 05:40:01,C,21.13
24/11/17 05:43:01,C,21.192
24/11/17 05:46:01,C,21.255
24/11/17 05:49:01,C,21.255
24/11/17 05:52:01,C,21.317
24/11/17 05:55:01,C,21.38
24/11/17 05:58:01,C,21.442
24/11/17 06:01:01,C,21.505
24/11/17 06:04:01,C,21.505
24/11/17 06:07:01,C,21.567
24/11/17 06:10:01,C,21.567
24/11/17 06:13:01,C,21.63
24/11/17 06:16:01,C,21.63
24/11/17 06:19:01,C,21.692
24/11/17 06:22:01,C,21.692
24/11/17 06:25:01,C,21.692
24/11/17 06:28:01,C,21.692
24/11/17 06:31:01,C,21.755
24/11/17 06:34:01,C,21.755
24/11/17 06:37:01,C,21.755
24/11/17 06:40:01,C,21.755
24/11/17 06:43:01,C,21.63
24/11/17 06:46:01,C,21.192
24/11/17 06:49:01,C,21.13
24/11/17 06:52:01,C,21.13
24/11/17 06:55:01,C,21.192
24/11/17 06:58:01,C,21.192
24/11/17 07:01:01,C,21.255
24/11/17 07:04:01,C,21.317
24/11/17 07:07:01,C,21.38
24/11/17 07:10:01,C,21.442
24/11/17 07:13:01,C,21.505
24/11/17 07:16:01,C,21.505
24/11/17 07:19:01,C,21.567
24/11/17 07:22:01,C,21.567
24/11/17 07:25:01,C,21.567
24/11/17 07:28:01,C,21.63
24/11/17 07:31:01,C,21.63
24/11/17 07:34:01,C,21.63
24/11/17 07:37:01,C,21.63
24/11/17 07:40:01,C,21.692
24/11/17 07:43:01,C,21.692
24/11/17 07:46:01,C,21.692
24/11/17 07:49:01,C,21.692
24/11/17 07:52:01,C,21.692
24/11/17 07:55:01,C,21.755
24/11/17 07:58:01,C,21.755
24/11/17 08:01:01,C,21.755
24/11/17 08:04:01,C,21.755
24/11/17 08:07:01,C,21.755
24/11/17 08:10:01,C,21.755
24/11/17 08:13:01,C,21.755
24/11/17 08:16:01,C,21.755
24/11/17 08:19:01,C,21.192
24/11/17 08:22:01,C,21.13
24/11/17 08:25:01,C,21.13
24/11/17 08:28:01,C,21.13
24/11/17 08:31:01,C,21.192
24/11/17 08:34:01,C,21.255
24/11/17 08:37:01,C,21.317
24/11/17 08:40:01,C,21.38
24/11/17 08:43:01,C,21.38
24/11/17 08:46:01,C,21.442
24/11/17 08:49:01,C,21.505
24/11/17 08:52:01,C,21.505
24/11/17 08:55:01,C,21.567
24/11/17 08:58:01,C,21.567
24/11/17 09:01:01,C,21.63
24/11/17 09:04:01,C,21.63
24/11/17 09:07:01,C,21.692
24/11/17 09:10:01,C,21.692
24/11/17 09:13:01,C,21.692
24/11/17 09:16:01,C,21.755
24/11/17 09:19:01,C,21.755
24/11/17 09:22:01,C,21.755
24/11/17 09:25:01,C,21.755
24/11/17 09:28:01,C,21.755
24/11/17 09:31:01,C,21.755
24/11/17 09:34:01,C,21.755
24/11/17 09:37:01,C,21.255
24/11/17 09:40:01,C,21.13
24/11/17 09:43:01,C,21.13
24/11/17 09:46:01,C,21.13
24/11/17 09:49:01,C,21.192
24/11/17 09:52:01,C,21.255
24/11/17 09:55:01,C,21.255
24/11/17 09:58:01,C,21.317
24/11/17 10:01:01,C,21.38
24/11/17 10:04:01,C,21.442
24/11/17 10:07:01,C,21.505
24/11/17 10:10:01,C,21.505
24/11/17 10:13:01,C,21.567
24/11/17 10:16:01,C,21.63
24/11/17 10:19:01,C,21.63
24/11/17 10:22:01,C,21.692
24/11/17 10:25:01,C,21.692
24/11/17 10:28:01,C,21.755
24/11/17 10:31:01,C,21.692
24/11/17 10:34:01,C,21.192
24/11/17 10:37:01,C,21.13
24/11/17 10:40:01,C,21.192
24/11/17 10:43:01,C,21.192